Vorticity
nan nan nan nan nan nan nan nan nan nan nan nan nan nan nan nan nan nan nan nan nan nan nan nan nan nan nan nan nan nan nan nan nan nan nan nan nan nan nan nan nan nan nan
nan 9 8 8 9 8 9 10 10 9 8 9 9 9 8 9 11 12 9 9 12 13 8 6 9 12 8 10 9 10 10 13 11 10 9 9 8 8 8 9 9 10 nan
nan 9 8 9 9 8 8 9 9 10 9 10 10 9 9 9 13 11 12 11 12 11 9 10 11 10 7 9 10 10 9 11 11 9 10 11 9 7 10 9 9 10 nan
nan 9 8 8 8 9 10 9 9 9 9 9 9 8 8 11 14 12 12 11 10 11 11 13 11 11 12 10 9 8 10 9 9 9 10 11 9 8 10 9 10 11 nan
nan 8 8 9 10 9 9 10 10 9 9 9 9 9 10 13 14 14 12 10 9 9 12 12 12 14 12 10 10 10 9 8 8 8 8 10 9 9 9 11 10 10 nan
nan 8 9 9 11 10 9 10 9 9 10 9 9 9 13 18 19 12 11 9 9 9 8 8 12 9 9 12 12 11 8 7 8 9 9 9 10 11 9 10 9 8 nan
nan 9 10 10 9 10 10 10 9 10 10 10 10 14 15 17 15 11 10 8 10 10 8 8 8 7 8 7 7 8 9 10 12 9 8 9 12 10 10 9 11 10 nan
nan 9 10 10 9 11 11 8 8 12 11 10 13 15 12 13 12 8 8 8 9 9 9 10 10 10 7 9 6 7 8 9 10 11 10 13 11 13 17 14 10 11 nan
nan 9 10 10 10 9 9 9 10 10 11 13 15 11 11 13 11 9 4 6 8 8 10 11 12 11 12 8 7 7 7 8 14 14 6 5 6 9 16 15 10 18 nan
nan 11 11 11 10 9 10 9 10 12 13 13 13 13 12 11 8 8 6 7 7 7 9 12 12 13 13 8 8 7 7 10 12 9 6 4 5 4 9 14 8 8 nan
nan 12 12 11 10 9 10 11 12 12 12 11 11 12 13 11 10 8 8 9 8 9 8 8 11 14 10 8 8 8 11 11 9 10 9 7 7 8 7 7 11 8 nan
nan 11 11 11 11 13 11 10 12 10 9 9 7 8 11 11 11 8 12 13 11 9 8 9 13 11 10 12 13 13 10 9 9 10 10 9 9 9 10 10 9 10 nan
nan 11 11 12 13 12 11 8 9 9 8 8 8 8 9 9 11 13 11 7 9 10 14 13 11 9 7 11 16 12 6 8 9 9 10 9 9 10 10 11 10 10 nan
nan 11 13 13 11 10 11 10 9 8 9 10 9 9 10 9 8 9 6 7 8 11 12 8 7 7 10 9 7 9 10 11 11 9 9 10 10 11 11 10 10 11 nan
nan 12 12 13 11 7 9 15 16 12 13 10 12 12 9 11 14 12 10 10 10 10 5 7 9 8 9 9 10 11 10 11 9 10 11 10 11 10 10 11 11 12 nan
nan 12 11 10 10 10 8 2 11 26 20 13 17 8 12 19 17 10 10 13 14 5 3 10 10 11 10 9 8 8 11 10 9 10 10 11 10 10 10 11 11 11 nan
nan 11 11 12 10 11 10 9 0 2 12 23 16 10 15 15 11 10 11 11 3 -0 8 11 11 11 10 10 9 10 11 10 11 10 10 10 9 8 10 11 10 9 nan
nan 12 10 10 10 11 11 10 11 10 3 2 8 22 18 15 9 8 4 2 2 6 13 12 10 10 10 10 9 9 12 12 11 11 10 10 9 9 9 11 13 11 nan
nan 10 10 11 13 11 11 11 11 10 10 7 5 10 17 18 13 10 0 1 7 6 10 10 11 11 11 11 10 11 12 11 11 10 10 11 10 9 10 10 11 12 nan
nan 13 9 9 11 11 11 11 10 11 11 10 10 8 8 9 10 7 6 8 10 10 10 11 10 11 11 10 10 10 10 11 11 11 11 10 10 10 10 9 10 11 nan
nan 15 10 10 11 11 11 11 10 11 10 10 11 16 12 6 11 9 8 9 9 10 10 12 11 10 10 11 10 11 10 10 10 11 11 11 10 9 10 10 11 11 nan
nan 13 12 11 10 11 11 11 12 11 11 10 10 18 11 5 11 11 9 10 10 10 12 12 11 12 12 10 9 10 10 10 11 11 11 10 10 10 9 9 9 9 nan
nan 14 10 11 12 12 11 12 12 11 11 11 10 13 11 9 11 11 10 10 11 10 11 12 10 10 11 12 12 12 10 10 12 12 11 10 10 10 10 11 9 10 nan
nan 20 17 12 12 11 10 11 12 12 11 11 10 12 12 9 11 11 10 10 11 11 11 12 13 11 8 9 10 11 11 12 14 15 11 10 11 10 10 13 12 11 nan
nan 13 18 18 14 12 11 12 12 11 10 11 11 11 12 10 11 11 11 11 11 11 11 11 12 15 12 9 10 10 12 12 9 9 11 14 13 11 10 10 10 10 nan
nan nan nan nan nan nan nan nan nan nan nan nan nan nan nan nan nan nan nan nan nan nan nan nan nan nan nan nan nan nan nan nan nan nan nan nan nan nan nan nan nan nan nan
CAPE
191 320 303 230 190 142 191 355 564 924 1257 1429 1400 1233 1108 1403 1896 2132 1877 1044 428 0 0 0 0 69 53 0 0 0 0 0 0 0 0 0 0 0 0 0 0 0 0
140 279 416 487 534 604 594 553 528 603 628 792 824 1033 1648 1944 1957 1913 1714 812 311 0 0 0 0 52 0 0 0 0 0 0 0 0 0 0 0 0 0 0 0 0 0
122 312 448 619 901 1153 1124 1087 1038 1019 1006 1176 1590 1791 1910 1978 2151 1404 728 275 8 0 0 0 220 0 0 0 0 0 0 0 0 0 0 0 0 0 0 0 0 0 0
209 277 386 449 463 734 1203 1465 1521 1515 1634 1572 1643 1819 2048 2364 2078 920 136 9 0 1 0 80 0 0 0 0 0 0 0 0 0 0 0 0 0 0 0 0 0 0 0
332 418 461 611 755 722 793 992 1303 1617 1870 2019 2228 2421 2660 2710 1485 323 83 76 2 0 0 0 0 0 0 0 0 0 0 0 0 0 0 0 0 0 0 0 0 0 0
397 506 590 684 1116 1288 1384 1477 1544 1757 2008 2249 2510 2785 3015 3235 752 133 116 0 0 0 0 0 0 0 0 0 0 0 0 0 0 0 0 0 0 0 0 0 0 0 0
552 681 870 987 1172 1364 1498 1663 1987 2109 2273 2608 2910 3127 1949 149 1 15 0 0 0 0 0 0 0 0 0 0 0 0 0 0 0 0 0 0 0 0 0 0 0 0 0
922 1039 1228 1323 1405 1421 1664 1812 2042 2293 2571 2961 3277 1536 361 0 0 0 0 0 0 0 0 0 0 0 0 0 0 0 0 0 0 0 0 0 0 0 0 0 0 0 0
948 1010 1149 1322 1301 1292 1878 2029 2201 2615 2876 2880 1632 731 119 0 1 0 0 0 0 0 0 0 0 0 0 0 0 0 0 0 0 0 0 0 0 0 0 0 0 0 0
245 632 894 1160 1327 1417 1612 2122 2527 2900 2478 1208 892 526 69 0 0 0 0 0 0 0 0 0 0 0 0 0 0 0 0 0 0 0 0 0 0 0 0 0 0 0 0
156 283 655 1059 1376 1709 1940 2342 2395 1652 955 699 314 97 17 0 0 0 0 0 0 0 0 0 0 0 0 0 0 0 0 0 0 0 0 0 0 0 0 0 0 0 0
511 721 905 1222 1570 2300 2477 2223 1767 1109 736 482 173 12 0 0 0 0 0 0 0 0 0 0 0 0 0 0 0 0 0 0 0 0 0 0 0 0 0 0 0 0 0
1737 1762 1894 2061 2410 2726 2317 2130 1628 1200 877 422 174 7 0 0 0 0 0 0 0 0 0 0 0 0 0 0 0 0 0 0 0 0 0 0 0 0 0 0 0 0 0
2233 2444 2643 2794 2978 2489 2102 1967 1631 1326 811 488 141 5 0 0 0 0 0 0 0 0 0 0 0 0 0 0 0 0 0 0 0 0 0 0 0 0 0 0 0 0 0
2304 2684 2917 2969 2801 2171 1212 1097 1557 1288 818 505 220 13 0 0 0 0 0 0 0 0 0 0 0 0 0 0 0 0 0 0 0 0 0 0 0 0 0 0 0 0 0
2798 2913 3276 3044 2133 297 93 55 1 479 491 178 70 1 0 0 0 0 0 0 0 0 0 0 0 0 0 0 0 0 0 0 0 0 0 0 0 0 0 0 0 0 0
2920 3138 2756 1760 1024 602 604 823 313 1 0 0 0 0 0 0 0 0 0 0 0 0 0 0 0 0 0 0 0 0 0 0 0 0 0 0 0 0 0 0 0 0 0
2778 2496 1719 1447 1156 917 913 881 549 363 80 0 0 0 0 0 0 0 0 0 0 0 0 0 0 0 0 0 0 0 0 0 0 0 0 0 0 0 0 0 0 0 0
1801 1499 1558 1118 1052 1029 814 582 556 431 129 0 0 0 0 0 0 0 0 0 0 0 0 0 0 0 0 0 0 0 0 0 0 0 0 0 0 0 0 0 0 0 0
1453 1558 1127 862 588 832 677 528 532 273 34 0 0 0 0 0 0 0 0 0 0 0 0 0 0 0 0 0 0 0 0 0 0 0 0 0 0 0 0 0 0 0 0
1333 694 891 742 624 640 567 516 146 89 7 0 0 0 0 0 0 0 0 0 0 0 0 0 0 0 0 0 0 0 0 0 0 0 0 0 0 0 0 0 0 0 0
1292 772 570 637 586 494 526 487 5 4 0 0 0 0 0 0 0 0 0 0 0 0 0 0 0 0 0 0 0 0 0 0 0 0 0 0 0 0 0 0 0 0 0
1014 781 664 633 573 398 279 53 0 0 0 0 0 0 0 0 0 0 0 0 0 0 0 0 0 0 0 0 0 0 0 0 0 0 0 0 0 0 0 0 0 0 0
213 1075 924 742 588 407 358 0 0 0 0 0 0 0 0 0 0 0 0 0 0 0 0 0 0 0 0 0 0 0 0 0 0 0 0 0 0 0 0 0 0 0 0
0 1 798 758 696 473 425 0 0 0 0 0 0 0 0 0 0 0 0 0 0 0 0 0 0 0 0 0 0 0 0 0 0 0 0 0 0 0 0 0 0 0 0
1 0 69 407 781 627 570 14 6 0 0 0 0 0 0 0 0 0 0 0 0 0 0 0 0 0 0 0 0 0 0 0 0 0 0 0 0 0 0 0 0 0 0